Temperature
13 13 13 13 13 13 13 13 13 13 13 12 12 12 12 12 12 12 11 11 11 11 10 10 10 10 10 10 10 10 9 9 9 9 9 9 9 9 9 9 8 8 8
12 12 12 13 13 13 13 13 13 13 12 12 12 12 12 12 11 11 11 11 11 11 10 10 10 10 10 10 10 10 9 9 9 9 9 9 9 9 9 8 8 8 8
12 12 12 12 12 12 12 12 12 12 12 12 12 12 12 11 11 11 11 11 11 10 10 10 10 10 10 10 9 9 9 9 9 9 9 9 9 9 8 8 8 7 7
11 11 11 12 12 12 12 12 12 11 11 11 11 11 11 11 11 11 11 11 10 10 10 10 10 10 9 9 9 9 9 9 9 9 9 9 8 8 8 8 7 7 7
11 11 11 11 11 11 11 11 11 11 11 11 11 11 11 11 11 10 10 10 10 10 10 10 10 10 9 9 9 9 8 8 9 9 8 8 8 8 8 7 7 7 7
10 10 10 11 11 11 11 11 11 11 11 11 10 10 10 10 10 10 10 10 10 10 10 10 9 9 9 9 9 9 8 8 8 8 8 8 8 7 7 7 7 7 6
10 10 10 10 10 10 11 11 11 10 10 10 10 9 9 9 9 10 10 10 10 9 9 9 9 9 9 9 9 9 8 8 8 8 8 8 7 7 7 7 6 6 6
9 9 10 10 10 10 10 10 10 10 10 10 10 9 9 9 9 9 9 9 9 9 9 9 9 9 9 9 9 8 8 8 8 8 8 8 7 7 7 6 6 6 6
9 9 9 10 9 10 10 10 10 10 9 9 10 10 9 9 9 9 9 9 9 9 9 9 9 9 9 9 9 8 8 8 8 8 8 8 7 7 7 6 6 6 5
8 9 9 9 9 9 10 10 10 10 10 9 9 10 10 10 9 9 9 9 9 9 9 9 9 9 9 9 9 8 8 8 8 8 8 7 7 7 6 6 6 5 5
8 8 9 9 9 9 9 9 10 10 9 9 9 9 10 10 10 9 9 9 9 9 9 9 9 9 9 9 9 8 8 8 8 8 8 7 7 7 6 6 5 5 5
7 8 8 8 9 9 9 9 9 9 9 9 9 9 10 10 10 10 10 9 9 9 9 9 9 9 9 9 9 8 8 8 8 8 7 7 7 6 6 5 5 5 4
7 8 8 8 8 8 9 9 9 9 9 9 9 9 10 10 11 11 11 10 9 9 9 9 9 9 9 9 8 8 8 8 8 8 7 7 7 6 6 5 5 4 4
7 7 7 7 8 8 8 9 9 9 9 9 9 9 9 10 10 10 11 10 9 8 9 9 9 9 9 9 8 8 8 8 8 7 7 7 6 6 6 5 5 4 4
7 7 7 7 7 7 8 8 8 8 8 8 9 9 9 9 10 10 10 10 10 8 8 9 9 9 9 9 8 8 8 8 7 7 7 6 6 6 5 5 4 4 3
7 7 7 7 7 7 7 8 8 8 8 8 8 8 9 9 9 9 10 10 10 10 9 9 9 9 9 9 8 8 8 8 7 7 7 6 6 5 5 4 4 3 3
6 7 7 7 7 7 7 8 7 8 8 8 8 8 9 9 9 9 9 9 9 10 10 9 9 9 9 9 8 8 8 7 7 7 6 6 5 5 5 4 3 3 2
6 6 7 7 7 7 7 7 7 8 8 8 8 8 8 9 9 9 9 9 9 9 9 9 9 9 9 8 8 8 7 7 7 6 6 5 5 5 4 4 3 2 2
6 6 7 7 7 7 7 7 7 8 8 8 8 8 9 9 9 9 9 9 9 9 9 9 9 9 8 8 8 8 7 7 6 6 6 5 4 4 4 3 3 2 2
6 6 6 7 7 7 7 7 7 8 8 8 8 8 9 9 9 9 9 9 9 8 8 8 8 8 8 8 7 7 7 7 6 6 5 5 4 4 3 3 2 2 1
6 6 6 6 6 7 7 7 7 8 8 8 8 8 9 9 9 9 9 9 8 8 8 8 8 8 7 7 7 7 7 6 6 5 5 4 4 3 3 2 2 1 1
6 6 6 6 6 6 7 7 7 7 8 8 8 8 9 9 9 9 9 9 9 8 8 8 8 8 8 8 7 7 6 6 5 5 4 4 4 3 3 2 2 1 0
5 6 6 6 6 6 7 7 7 7 8 8 8 8 8 8 8 8 8 8 8 8 8 8 8 8 8 8 7 6 6 6 5 5 4 4 3 3 2 2 1 0 -0
5 5 6 6 6 6 7 7 7 7 8 8 8 8 8 8 8 8 8 8 8 8 8 8 8 8 8 7 7 6 6 5 4 4 4 3 3 3 2 1 1 -0 -1
5 5 5 5 6 6 7 7 7 7 7 8 8 8 8 8 8 8 8 8 8 7 7 7 7 7 7 6 6 6 5 5 4 4 3 3 2 2 2 1 0 -0 -1
4 5 5 5 5 6 6 6 7 7 7 7 7 8 8 8 8 8 7 7 7 7 7 7 7 6 6 6 5 5 5 4 4 3 3 2 2 1 1 0 -0 -1 -1
Wind_Speed
5 4 5 5 6 7 7 6 7 10 10 10 10 11 10 10 10 10 10 12 13 14 14 14 13 12 11 10 9 7 6 5 4 3 3 3 3 4 4 5 6 7 8
5 5 5 6 6 7 7 7 8 9 9 9 9 10 10 10 10 10 10 11 13 13 14 14 13 12 11 10 9 8 6 5 4 3 2 2 2 3 4 5 6 7 8
7 6 5 6 6 8 8 7 7 7 8 8 9 8 9 9 9 9 10 10 11 12 13 13 13 12 11 10 9 8 6 5 4 2 1 0 1 2 3 5 6 7 9
8 6 6 6 7 8 7 7 7 7 8 9 8 7 6 7 8 9 9 9 10 10 11 12 12 12 11 10 9 8 7 5 4 3 2 2 2 3 4 5 7 8 9
9 8 7 7 8 7 7 9 7 7 8 9 8 7 6 6 7 7 7 8 10 10 10 11 11 11 10 10 9 8 7 6 5 4 3 3 3 4 5 6 8 8 9
9 8 7 8 9 8 8 9 9 7 8 9 8 6 5 5 5 6 7 7 8 10 10 9 9 9 9 9 9 8 7 6 5 5 4 3 3 5 6 7 8 8 9
10 9 8 8 9 9 10 10 8 9 7 8 6 4 2 2 4 5 5 6 6 8 9 9 9 8 8 9 9 9 8 7 6 5 4 4 4 5 6 7 8 8 9
10 9 9 9 10 9 10 10 10 7 6 9 7 7 4 2 3 5 5 6 7 6 6 8 9 9 8 8 7 8 8 7 6 5 5 5 5 5 6 7 8 8 9
10 10 11 10 11 11 11 12 13 10 10 8 8 7 6 6 3 3 5 6 7 6 6 7 8 9 10 9 8 7 7 6 6 6 5 5 5 6 7 7 7 8 9
10 11 12 11 12 11 11 13 13 10 12 11 9 4 3 5 5 4 3 5 7 7 7 6 7 8 10 9 8 8 7 7 7 6 5 5 5 6 6 6 6 7 9
10 11 12 12 13 12 12 12 12 13 12 12 9 6 4 3 4 5 5 6 4 5 6 6 6 7 9 9 9 9 8 7 7 6 5 5 5 5 5 5 6 7 9
8 10 11 12 13 12 13 13 13 15 13 11 9 7 7 6 6 5 5 7 6 4 4 4 5 6 8 10 10 10 9 8 7 6 5 4 4 3 4 5 6 8 9
8 10 11 11 12 13 13 12 13 14 15 14 11 8 7 6 5 4 5 5 3 2 3 3 4 6 8 9 10 11 10 9 8 6 5 4 3 2 4 5 6 8 9
9 10 11 12 13 13 14 12 12 13 13 14 12 10 8 7 6 5 6 7 5 2 3 4 3 5 7 9 10 11 9 9 8 7 5 4 3 2 3 4 6 7 9
8 11 11 12 12 13 14 13 11 14 13 13 12 11 9 7 7 5 5 7 7 6 6 5 4 4 7 8 9 9 8 9 8 7 6 5 4 2 3 4 5 7 8
10 10 11 12 11 12 13 12 12 13 14 13 11 12 10 7 7 6 6 5 5 5 5 4 4 3 5 6 9 9 8 8 8 7 6 5 4 2 2 3 5 6 7
10 10 11 11 12 12 14 13 13 14 15 14 13 13 11 9 9 8 7 6 5 4 5 3 2 3 4 5 5 6 7 6 5 6 6 5 3 2 2 3 4 5 7
10 11 11 12 12 12 13 14 14 15 16 15 15 14 13 10 11 9 8 7 6 5 5 6 4 4 4 5 5 5 5 5 4 5 5 4 3 2 2 3 3 5 6
9 10 11 12 12 12 13 14 15 15 16 15 16 15 14 13 12 10 9 8 6 5 5 6 5 3 3 4 4 3 4 3 3 4 4 3 3 2 1 2 3 3 4
6 8 9 10 11 12 12 13 13 13 14 14 14 14 14 15 14 13 11 10 8 6 6 7 6 4 4 4 4 4 3 2 1 2 2 2 2 2 0 1 2 3 4
5 6 8 8 9 10 11 11 12 12 13 13 13 12 13 15 16 14 11 11 11 8 7 7 6 5 5 5 5 4 4 3 1 1 1 1 2 1 1 1 1 2 4
3 4 6 7 7 7 10 12 12 11 12 13 13 12 12 14 16 16 16 15 14 12 10 8 6 7 7 6 5 5 5 3 2 2 2 1 1 1 0 0 1 2 4
3 3 3 5 6 6 9 11 12 11 11 13 13 12 11 11 14 12 13 14 12 13 13 10 9 9 9 9 9 7 5 4 3 3 2 1 1 1 1 1 1 1 3
2 1 2 3 4 6 7 10 11 10 10 11 12 13 13 13 13 14 12 10 8 7 9 8 9 9 8 9 9 8 7 5 4 2 2 2 1 1 1 2 1 1 3
2 1 1 2 3 4 6 7 10 9 9 9 10 12 14 14 17 19 14 12 9 6 6 9 9 10 13 14 13 9 7 5 2 1 1 2 1 0 1 1 1 3 4
2 1 1 1 2 3 4 6 7 8 9 8 8 10 15 16 19 20 15 14 12 9 9 9 9 11 10 12 12 8 8 6 3 2 2 2 2 1 0 1 1 2 3
Wind_Direction
202 205 197 192 186 175 174 173 174 167 161 161 165 165 166 167 167 170 176 178 180 178 173 168 164 161 157 153 151 149 150 144 135 123 107 86 60 40 28 20 13 4 357
200 200 209 199 193 180 177 175 175 173 168 165 169 171 168 168 170 169 171 176 177 177 176 173 170 167 163 161 162 162 164 160 154 143 119 79 42 15 7 3 356 351 347
199 201 205 200 194 182 176 171 169 172 170 168 168 171 169 170 170 170 169 169 174 179 179 178 176 176 173 171 173 174 174 175 175 177 173 215 342 343 344 343 341 339 336
201 201 204 204 189 182 180 178 173 178 176 172 170 171 170 171 170 171 169 168 168 174 180 181 183 182 180 181 184 184 185 189 197 208 228 266 300 320 326 328 329 328 330
205 201 208 207 188 187 188 183 178 177 176 172 171 166 166 173 174 171 174 172 173 175 178 182 184 185 186 188 192 192 193 200 211 224 246 263 291 309 317 320 323 327 330
210 202 207 206 193 189 191 184 178 178 177 170 167 162 162 167 175 176 179 175 178 179 180 180 182 185 190 194 197 198 200 207 217 232 244 263 286 301 309 317 325 329 333
214 206 207 203 199 193 192 185 177 174 177 163 150 146 115 143 183 186 179 176 182 182 178 179 180 179 189 198 200 203 209 216 222 230 245 260 281 296 308 316 323 327 331
216 213 204 205 203 193 191 188 175 174 179 173 162 152 150 174 214 200 188 187 186 180 181 183 182 182 185 189 198 207 218 226 229 237 247 260 277 294 305 314 320 326 329
217 215 211 208 205 194 193 191 182 178 181 185 178 166 164 188 175 200 202 194 186 187 191 184 185 187 186 186 194 206 217 228 236 241 245 257 275 291 303 312 319 325 330
221 219 213 210 208 199 194 196 188 182 178 184 187 195 175 152 156 170 195 195 191 193 191 188 185 189 189 189 196 204 211 222 233 238 243 259 274 290 303 313 322 330 334
222 222 216 212 208 202 196 197 191 187 187 189 185 176 161 149 139 157 181 187 192 200 192 188 188 189 191 191 196 203 205 212 225 234 245 256 272 287 300 312 322 328 330
226 221 221 216 208 203 199 199 196 193 194 192 189 180 172 168 170 160 174 184 188 190 185 185 189 190 189 191 196 200 204 210 217 223 234 248 266 286 306 319 327 331 332
232 223 221 216 210 205 200 198 199 199 196 191 193 191 185 183 169 159 157 167 166 161 173 195 197 191 189 187 194 197 201 203 208 212 214 225 248 285 308 318 326 331 335
231 224 222 214 213 207 202 198 202 203 199 196 193 190 185 182 175 170 165 161 162 166 183 201 186 191 187 183 189 188 194 198 200 199 200 205 225 266 300 315 324 327 332
228 219 222 215 212 208 202 198 205 202 199 198 193 190 187 185 178 174 170 167 167 180 199 195 185 185 182 177 182 180 183 190 191 195 197 201 216 241 290 316 324 327 330
224 218 220 213 210 210 204 200 206 203 199 200 193 189 189 184 176 169 173 174 172 169 185 187 184 163 166 171 177 173 179 180 187 192 195 197 203 227 275 309 318 325 327
224 217 219 211 209 211 204 199 206 200 198 199 193 189 190 180 176 173 173 173 171 158 172 165 137 142 154 160 155 158 165 166 177 187 188 186 195 219 264 296 312 322 329
225 218 216 210 209 211 204 202 204 200 196 197 194 187 187 183 177 175 176 177 178 168 166 169 156 157 153 161 154 150 147 152 160 176 177 181 192 219 262 287 309 319 329
228 214 210 208 207 208 204 204 203 199 196 195 191 187 184 180 182 179 177 177 174 168 162 162 161 147 136 143 142 137 128 127 138 158 166 182 195 216 258 288 309 321 330
233 215 213 210 208 207 203 203 199 197 195 193 190 187 184 184 184 179 179 177 170 163 158 154 152 146 142 139 142 148 147 144 143 132 144 163 173 168 168 322 316 322 331
244 225 211 211 208 206 200 198 196 193 193 189 187 187 186 180 180 179 178 174 170 169 164 161 160 151 157 159 172 160 161 143 135 127 125 143 131 111 64 347 323 320 333
254 238 212 206 207 210 201 199 195 190 190 187 185 184 179 171 171 173 171 171 172 172 175 174 175 176 180 173 155 153 146 147 195 170 149 197 132 173 234 280 317 335 337
273 243 215 206 206 203 200 195 191 191 190 188 183 179 176 174 169 168 165 166 169 170 172 175 176 182 177 175 162 159 163 157 163 156 141 175 158 215 239 289 326 346 354
268 251 237 214 204 203 198 188 178 183 187 188 184 178 172 170 171 165 162 162 164 170 171 168 173 175 168 163 164 159 148 117 90 93 121 156 178 254 325 338 337 1 1
295 269 254 217 200 199 189 186 176 176 179 181 181 175 170 170 167 160 160 159 151 142 125 129 133 134 136 140 139 128 131 129 129 158 126 127 145 331 325 316 328 353 359
293 301 279 233 205 202 196 188 184 176 176 176 175 172 170 168 167 163 165 163 160 155 137 118 110 110 117 130 136 142 151 146 135 166 171 131 131 96 354 312 321 347 3
Height
1464 1466 1468 1471 1473 1475 1478 1481 1483 1486 1489 1492 1496 1499 1502 1504 1507 1509 1512 1514 1517 1519 1520 1521 1522 1523 1525 1525 1526 1527 1527 1527 1527 1527 1527 1527 1526 1526 1525 1524 1522 1521 1520
1459 1461 1463 1465 1468 1470 1473 1477 1479 1482 1484 1488 1492 1495 1498 1502 1504 1507 1509 1512 1515 1517 1519 1520 1521 1522 1523 1524 1525 1525 1526 1526 1526 1526 1526 1526 1525 1524 1523 1522 1521 1520 1518
1453 1455 1458 1460 1463 1466 1469 1472 1475 1479 1481 1484 1488 1492 1495 1498 1501 1504 1506 1509 1512 1514 1517 1518 1520 1521 1522 1522 1523 1524 1525 1525 1525 1525 1525 1524 1524 1523 1522 1521 1519 1518 1516
1447 1449 1452 1455 1458 1461 1463 1466 1470 1473 1476 1480 1483 1487 1491 1495 1498 1501 1503 1506 1509 1511 1514 1516 1517 1519 1520 1521 1522 1522 1523 1523 1523 1523 1523 1523 1522 1521 1520 1519 1518 1516 1515
1441 1443 1446 1449 1452 1455 1458 1462 1465 1469 1472 1476 1480 1483 1487 1491 1494 1497 1500 1503 1505 1508 1511 1513 1515 1516 1518 1519 1520 1521 1521 1521 1522 1522 1522 1521 1520 1520 1519 1517 1516 1514 1512
1434 1437 1440 1443 1447 1449 1452 1456 1460 1464 1468 1472 1476 1480 1483 1487 1491 1493 1496 1499 1502 1505 1508 1510 1512 1514 1515 1517 1518 1519 1519 1519 1520 1520 1520 1519 1518 1517 1516 1515 1514 1512 1510
1428 1429 1432 1436 1440 1443 1446 1449 1454 1459 1463 1467 1472 1476 1481 1484 1488 1490 1493 1496 1499 1502 1505 1507 1509 1511 1513 1514 1515 1516 1517 1517 1518 1518 1517 1517 1516 1515 1514 1513 1511 1509 1507
1421 1423 1425 1429 1433 1436 1440 1444 1447 1452 1457 1461 1465 1470 1475 1481 1482 1486 1489 1491 1495 1498 1501 1503 1506 1508 1509 1511 1512 1514 1514 1515 1515 1515 1515 1514 1514 1513 1512 1510 1508 1507 1504
1414 1416 1418 1421 1425 1428 1432 1436 1441 1444 1449 1455 1460 1463 1467 1470 1476 1481 1483 1487 1490 1494 1497 1499 1502 1504 1506 1508 1509 1511 1511 1512 1512 1512 1512 1512 1511 1510 1509 1507 1505 1503 1501
1407 1409 1412 1415 1418 1421 1425 1430 1434 1439 1443 1447 1454 1457 1460 1461 1467 1473 1478 1481 1486 1489 1492 1495 1497 1500 1502 1504 1506 1507 1508 1509 1509 1509 1509 1508 1508 1507 1505 1504 1502 1500 1498
1400 1402 1404 1407 1411 1414 1418 1423 1427 1432 1437 1441 1444 1449 1453 1456 1459 1463 1468 1475 1480 1484 1487 1490 1493 1496 1498 1500 1502 1503 1505 1505 1506 1506 1506 1505 1504 1503 1502 1501 1499 1497 1495
1392 1393 1397 1400 1403 1407 1411 1416 1420 1425 1430 1435 1439 1442 1446 1449 1453 1458 1462 1468 1473 1478 1482 1485 1488 1491 1494 1496 1498 1499 1501 1502 1502 1502 1502 1502 1501 1500 1498 1497 1495 1493 1491
1383 1385 1390 1392 1396 1399 1404 1409 1414 1419 1423 1428 1432 1437 1442 1446 1450 1454 1458 1463 1468 1472 1477 1480 1483 1486 1489 1491 1493 1495 1497 1498 1498 1498 1498 1498 1497 1496 1494 1493 1491 1489 1487
1377 1379 1382 1386 1389 1393 1397 1402 1407 1412 1417 1422 1426 1432 1436 1441 1446 1450 1454 1457 1462 1467 1470 1474 1477 1481 1484 1487 1489 1491 1492 1493 1494 1494 1494 1494 1493 1492 1490 1489 1487 1485 1483
1370 1373 1376 1379 1382 1386 1390 1394 1400 1405 1410 1415 1421 1426 1431 1436 1441 1445 1449 1453 1457 1460 1464 1468 1472 1475 1479 1482 1484 1486 1488 1489 1490 1490 1490 1489 1489 1488 1487 1485 1483 1481 1479
1364 1366 1368 1372 1375 1379 1383 1388 1393 1398 1403 1409 1415 1420 1425 1430 1436 1440 1445 1449 1453 1455 1458 1462 1467 1470 1474 1477 1480 1482 1484 1485 1486 1486 1486 1485 1485 1484 1482 1481 1479 1477 1475
1357 1359 1362 1365 1368 1372 1376 1381 1386 1391 1396 1402 1408 1413 1419 1425 1430 1435 1440 1444 1448 1451 1454 1458 1462 1466 1470 1473 1475 1478 1479 1481 1481 1482 1481 1481 1481 1480 1478 1477 1475 1473 1471
1350 1353 1356 1359 1362 1366 1369 1375 1379 1384 1389 1395 1400 1406 1412 1419 1424 1430 1435 1439 1443 1447 1451 1453 1457 1461 1465 1468 1470 1473 1475 1476 1477 1477 1477 1477 1477 1476 1475 1473 1471 1470 1468
1344 1346 1350 1352 1355 1359 1363 1368 1373 1377 1382 1388 1394 1400 1406 1413 1418 1424 1429 1433 1438 1443 1447 1450 1453 1457 1460 1463 1466 1468 1470 1471 1472 1473 1473 1473 1473 1472 1471 1469 1468 1466 1464
1338 1340 1344 1347 1350 1353 1357 1362 1367 1372 1377 1382 1388 1394 1400 1406 1412 1418 1423 1428 1433 1437 1442 1445 1448 1452 1455 1458 1461 1462 1465 1467 1468 1468 1469 1469 1469 1468 1467 1466 1464 1462 1461
1335 1336 1339 1342 1345 1348 1352 1356 1361 1366 1371 1377 1383 1389 1394 1401 1408 1413 1418 1423 1427 1432 1436 1440 1443 1447 1450 1452 1455 1457 1460 1462 1463 1464 1464 1465 1465 1464 1463 1462 1460 1459 1457
1331 1332 1334 1337 1340 1342 1347 1352 1356 1361 1366 1372 1377 1383 1389 1396 1402 1408 1413 1418 1423 1426 1431 1434 1438 1441 1444 1447 1450 1453 1455 1456 1458 1460 1460 1461 1461 1460 1459 1458 1457 1455 1453
1327 1328 1330 1333 1335 1339 1343 1347 1352 1357 1362 1367 1372 1377 1384 1390 1396 1402 1408 1414 1418 1422 1427 1430 1433 1436 1440 1442 1445 1448 1450 1452 1454 1455 1456 1457 1457 1457 1456 1455 1453 1452 1450
1325 1325 1327 1330 1332 1336 1339 1342 1347 1353 1358 1363 1367 1372 1378 1384 1391 1397 1403 1408 1413 1418 1422 1426 1429 1433 1436 1439 1442 1444 1447 1449 1451 1452 1453 1453 1453 1453 1453 1452 1450 1449 1447
1323 1323 1325 1327 1329 1332 1335 1338 1343 1348 1353 1358 1363 1369 1374 1380 1386 1393 1398 1403 1408 1413 1418 1422 1426 1429 1432 1435 1438 1440 1442 1445 1446 1448 1449 1449 1449 1448 1448 1448 1447 1445 1443
1322 1322 1323 1325 1327 1330 1332 1335 1339 1343 1348 1353 1359 1364 1370 1376 1382 1388 1393 1398 1403 1408 1413 1418 1422 1425 1428 1431 1434 1437 1439 1441 1443 1444 1445 1446 1445 1445 1445 1444 1444 1442 1440